Weather History for Monticello, NY

Change the Weather History Date:

Sunday, December 2, 2012

  Actual Average Record
Temperature  
Mean Temperature 38 °F -  
Max Temperature 44 °F 38 °F 57 °F (1998)
Min Temperature 33 °F 24 °F 12 °F (2007)
Degree Days  
Heating Degree Days 26    
Moisture  
Dew Point 37 °F    
Average Humidity 90    
Maximum Humidity 100    
Minimum Humidity 76    
Precipitation  
Precipitation 0.01 in - - ()
Sea Level Pressure  
Sea Level Pressure 30.21 in    
Wind  
Wind Speed 4 mph (SSE)    
Max Wind Speed 9 mph    
Max Gust Speed -    
Averages and records for this station are not official NWS values.
T = Trace of Precipitation, MM = Missing Value Source: NWS Daily Summary

Daily Weather History Graph

Daily Weather History Graph

Search for Another Location

Airport:

Trip Planner

Search our weather history database for the weather conditions in past years. The results will help you decide how hot, cold, wet, or windy it might be!

Date:

Astronomy

Dec. 02, 2012 Rise Set
Actual Time 7:08 AM EST 4:29 PM EST
Civil Twilight 6:37 AM EST 5:00 PM EST
Nautical Twilight 6:02 AM EST 5:34 PM EST
Astronomical Twilight 5:29 AM EST 6:08 PM EST
Moon 8:15 PM EST (12/2) 9:55 AM EST (12/2)
Length of Visible Light 10h 23m
Length of Day
9h 20m
Waning Gibbous, 86% of the Moon is Illuminated
Dec 2
Waning Gibbous
Dec 6
Last Quarter
Dec 13
New
Dec 20
First Quarter
Dec 28
Full

Hourly Weather History & Observations

Time (EST) Temp. Windchill Dew Point Humidity Pressure Visibility Wind Dir Wind Speed Gust Speed Precip Events Conditions
12:15 AM 33.8 °F 29.6 °F 32.0 °F 93% 30.39 in - East 4.6 mph - N/A   Overcast
12:35 AM 33.8 °F 28.6 °F 32.0 °F 93% 30.38 in - East 5.8 mph - N/A   Overcast
12:55 AM 33.8 °F 30.8 °F 32.0 °F 93% 30.38 in - East 3.5 mph - N/A   Overcast
1:15 AM 33.8 °F 29.6 °F 32.0 °F 93% 30.37 in - East 4.6 mph - N/A   Overcast
1:35 AM 33.8 °F 27.7 °F 32.0 °F 93% 30.36 in - East 6.9 mph - N/A   Overcast
1:55 AM 33.8 °F 30.8 °F 32.0 °F 93% 30.36 in - East 3.5 mph - N/A   Overcast
2:15 AM 33.8 °F 29.6 °F 33.8 °F 100% 30.36 in - ENE 4.6 mph - N/A   Overcast
2:35 AM 35.6 °F 29.9 °F 33.8 °F 93% 30.37 in - ENE 6.9 mph - N/A   Overcast
2:55 AM 35.6 °F 32.8 °F 33.8 °F 93% 30.37 in - East 3.5 mph - N/A   Overcast
3:15 AM 35.6 °F 31.7 °F 33.8 °F 93% 30.36 in - NE 4.6 mph - N/A   Overcast
3:35 AM 35.6 °F 31.7 °F 33.8 °F 93% 30.36 in - ENE 4.6 mph - N/A   Overcast
3:55 AM 35.6 °F 32.8 °F 33.8 °F 93% 30.35 in - East 3.5 mph - N/A   Overcast
4:15 AM 35.6 °F 32.8 °F 33.8 °F 93% 30.35 in - East 3.5 mph - N/A   Overcast
4:35 AM 35.6 °F 32.8 °F 33.8 °F 93% 30.35 in - East 3.5 mph - N/A   Overcast
4:55 AM 35.6 °F 32.8 °F 33.8 °F 93% 30.34 in - ESE 3.5 mph - N/A   Overcast
5:15 AM 35.6 °F 31.7 °F 33.8 °F 93% 30.33 in - ESE 4.6 mph - N/A   Overcast
5:35 AM 35.6 °F - 33.8 °F 93% 30.34 in - Calm Calm - N/A   Overcast
5:55 AM 35.6 °F - 33.8 °F 93% 30.34 in - Calm Calm - N/A   Overcast
6:15 AM 35.6 °F - 33.8 °F 93% 30.33 in - Calm Calm - N/A   Overcast
6:35 AM 35.6 °F - 33.8 °F 93% 30.32 in - Calm Calm - N/A   Overcast
6:55 AM 33.8 °F 30.8 °F 33.8 °F 100% 30.31 in - East 3.5 mph - N/A   Overcast
7:15 AM 35.6 °F 30.7 °F 33.8 °F 93% 30.30 in - East 5.8 mph - N/A   Overcast
7:35 AM 35.6 °F - 33.8 °F 93% 30.31 in - Calm Calm - N/A   Overcast
8:15 AM 35.6 °F 32.8 °F 33.8 °F 93% 30.29 in - East 3.5 mph - N/A   Overcast
8:35 AM 35.6 °F - 33.8 °F 93% 30.31 in - Calm Calm - N/A   Overcast
8:55 AM 37.4 °F 33.8 °F 35.6 °F 93% 30.30 in - SE 4.6 mph - N/A   Overcast
9:15 AM 37.4 °F 33.8 °F 35.6 °F 93% 30.29 in - SSE 4.6 mph - N/A   Overcast
9:35 AM 37.4 °F 34.9 °F 35.6 °F 93% 30.29 in - SE 3.5 mph - N/A   Overcast
9:55 AM 37.4 °F 34.9 °F 35.6 °F 93% 30.29 in - SSE 3.5 mph - N/A   Overcast
10:15 AM 37.4 °F 33.8 °F 35.6 °F 93% 30.28 in - SSE 4.6 mph - N/A   Overcast
10:35 AM 37.4 °F 33.8 °F 35.6 °F 93% 30.27 in - SE 4.6 mph - N/A   Overcast
10:55 AM 37.4 °F 33.8 °F 37.4 °F 100% 30.25 in - SSE 4.6 mph - N/A   Overcast
11:15 AM 39.2 °F 35.0 °F 37.4 °F 93% 30.23 in - SE 5.8 mph - N/A   Overcast
11:35 AM 39.2 °F 35.0 °F 37.4 °F 93% 30.22 in - SSE 5.8 mph - N/A   Overcast
11:55 AM 39.2 °F 35.9 °F 37.4 °F 93% 30.21 in - South 4.6 mph - N/A   Overcast
12:15 PM 39.2 °F 35.9 °F 37.4 °F 93% 30.19 in - SSE 4.6 mph - N/A   Overcast
12:35 PM 41.0 °F 38.0 °F 39.2 °F 93% 30.18 in - SSE 4.6 mph - N/A   Overcast
12:55 PM 42.8 °F 39.3 °F 39.2 °F 87% 30.17 in - South 5.8 mph - N/A   Overcast
1:15 PM 42.8 °F 40.1 °F 39.2 °F 87% 30.15 in - South 4.6 mph - N/A   Unknown
1:35 PM 44.6 °F 40.2 °F 39.2 °F 81% 30.14 in - South 8.1 mph - N/A   Partly Cloudy
1:55 PM 44.6 °F 41.4 °F 39.2 °F 81% 30.13 in - SSE 5.8 mph - N/A   Scattered Clouds
2:15 PM 44.6 °F 40.7 °F 39.2 °F 81% 30.12 in - SSE 6.9 mph - N/A   Scattered Clouds
2:35 PM 44.6 °F 41.4 °F 39.2 °F 81% 30.12 in - SSE 5.8 mph - N/A   Clear
2:55 PM 44.6 °F 41.4 °F 39.2 °F 81% 30.11 in - SSE 5.8 mph - N/A   Clear
3:15 PM 44.6 °F 40.7 °F 37.4 °F 76% 30.11 in - SSE 6.9 mph - N/A   Clear
3:35 PM 42.8 °F 38.6 °F 37.4 °F 81% 30.10 in - SSE 6.9 mph - N/A   Mostly Cloudy
3:55 PM 42.8 °F 37.5 °F 37.4 °F 81% 30.10 in - South 9.2 mph - N/A   Overcast
4:15 PM 42.8 °F 38.6 °F 37.4 °F 81% 30.09 in - SSE 6.9 mph - N/A   Mostly Cloudy
4:35 PM 42.8 °F 38.6 °F 37.4 °F 81% 30.09 in - South 6.9 mph - N/A   Mostly Cloudy
4:55 PM 42.8 °F 40.1 °F 37.4 °F 81% 30.09 in - South 4.6 mph - N/A   Overcast
5:15 PM 41.0 °F 38.0 °F 37.4 °F 87% 30.08 in - South 4.6 mph - N/A   Unknown
5:35 PM 41.0 °F 39.0 °F 37.4 °F 87% 30.08 in - SSE 3.5 mph - N/A   Unknown
5:55 PM 41.0 °F 38.0 °F 37.4 °F 87% 30.08 in - South 4.6 mph - N/A   Overcast
6:15 PM 42.8 °F 40.1 °F 39.2 °F 87% 30.08 in - South 4.6 mph - 0.01 in   Overcast
6:35 PM 41.0 °F 39.0 °F 39.2 °F 93% 30.09 in - SSW 3.5 mph - 0.01 in   Overcast
6:55 PM 41.0 °F 38.0 °F 39.2 °F 93% 30.10 in - SSW 4.6 mph - 0.01 in   Overcast
7:15 PM 42.8 °F 38.6 °F 39.2 °F 87% 30.10 in - SSW 6.9 mph - N/A   Overcast
7:35 PM 42.8 °F 41.1 °F 39.2 °F 87% 30.10 in - SSW 3.5 mph - N/A   Overcast
7:55 PM 42.8 °F 40.1 °F 39.2 °F 87% 30.09 in - South 4.6 mph - N/A   Overcast
8:15 PM 42.8 °F 41.1 °F 39.2 °F 87% 30.10 in - SW 3.5 mph - N/A   Overcast
8:35 PM 42.8 °F 40.1 °F 39.2 °F 87% 30.10 in - SSW 4.6 mph - N/A   Overcast
8:55 PM 42.8 °F 40.1 °F 39.2 °F 87% 30.10 in - SW 4.6 mph - N/A   Overcast
9:15 PM 42.8 °F 41.1 °F 39.2 °F 87% 30.10 in - SW 3.5 mph - N/A   Unknown
9:35 PM 42.8 °F 41.1 °F 39.2 °F 87% 30.09 in - SW 3.5 mph - N/A   Overcast
9:55 PM 42.8 °F 41.1 °F 39.2 °F 87% 30.09 in - WNW 3.5 mph - N/A   Unknown
10:15 PM 42.8 °F - 39.2 °F 87% 30.09 in - Calm Calm - N/A   Unknown
10:35 PM 42.8 °F - 39.2 °F 87% 30.09 in - Calm Calm - N/A   Overcast
10:55 PM 42.8 °F - 39.2 °F 87% 30.09 in - Calm Calm - N/A   Overcast
11:15 PM 42.8 °F 40.1 °F 39.2 °F 87% 30.09 in - WSW 4.6 mph - N/A   Overcast
11:35 PM 42.8 °F - 41.0 °F 93% 30.08 in - Calm Calm - N/A   Overcast
11:55 PM 42.8 °F - 41.0 °F 93% 30.09 in - Calm Calm - N/A   Overcast